AQI (47)

Current Conditions for Foresthill, CA. Sunny, Dry   
Visibility: 10 miles
Space WX Alerts: CONTINUED ALERT:  Electron 2MeV Integral Flux exceeded 1000pfu ( Latest Alert ) - Issue Time: 2018 Oct 20 1716 UTC

  Summary / Temperature 

Current Temperature
57.1°F
13.9°C
(24/hr Ago)
61.4°F
(Apparent temp)
51.1°F
Cool
Wind Chill Graphs
57.1°F 

57.1°F/ 13.9°C
 --- Virtual Temp: 58.4°F ---

 Temp Rate:

 24/hr Difference:

 Avg Running Temp:

 Todays High:

 Todays Low:

 Y-days High:

 Y-days Low:

 Todays WChill:

 Y-days WChill:

 Evapotranspiration:

-0.1°F/hr 

-4.3°F

56.9°F

60.5°F 12:00am

56.7°F 6:44am

74.9°F 2:15pm

60.5°F 11:55pm

52.5°F 7:05am

57.9°F 7:05am

0.019 in

115' Above Ground

 Temperature:

 6'AGL VRS 115'AGL:

 Avg Running Temp:

 Humidity:

 Todays High:

 Todays Low:

 Y-days High:

 Y-days Low:

61.0°F 

+3.9°F

59.3°F

30% 

63.0°F 12:00am

58.0°F 6:24am

77.0°F 1:46pm

63.0°F 10:53pm

Temp & Humidity Graphs

  Wind 

Wind Speed

 8.0 mph

Gusting to

 15.0 mph

Wind from ESE

103°  ESE

Gentle breeze

 Avg speed:

 Wind Run:

 Peak Gust:

  4.0 mph 

29.0 miles

  19.0 mph 6:59am

  Almanac  

Moon age: 11 days,18 hours,40 minutes,90%

Waxing Gibbous
90%
Illuminated
11 days in cycle

 Moonrise:

 Moonset:

 Sunrise:

 Sunset:

 Solar Noon:

5:12pm

4:06am

7:20am

6:17pm

12:48pm

2min 30s less daylight tomorrow 

  Solar Radiation 

(Current Solar)
  113 W/m2 (77%)
(Todays High)
 116 W/m2@8:16am
Feels like: 57.7°F in the sun

Rain

 Rain Today:

 Rain Rate (/hr):

 Rain last hour:

 Rain Yesterday:

 This Month:

 Season Total:

14 Days Since Last Rain Day

0.00 in

0.000 in

0.00 in

0.00 in

0.92 in

0.92 in

Updated Time

Updated: 10/21/18  8:17am

(Updated  sec ago)

Humidity & Barometer

 Humidity:

 Wetbulb:

 Dew Point:

 Barometer:

37% 

46.9°F 

31.0°F 

29.984 inHg 

 Baro Trend:  Steady 
Northern Calif
Preparedness
Fire 
Level 

    UV Index  

(Current UV)
0.0  None
(Todays High) @ 12:00am
0.0   None

National Weather Service Forecast

Today

Today: Sunny
Sunny
Tonight

Tonight: Clear
Clear
Monday

Monday: Sunny
Sunny
Monday
Night
Monday Night: Clear
Clear
Tuesday

Tuesday: Sunny
Sunny
Tuesday
Night
Tuesday Night: Partly Cloudy
Partly Cloudy
Hi 75 °F ↓ Lo 49 °F ↑ Hi 71 °F ↓ Lo 50 °F Hi 69 °F Lo 51 °F

Foresthill Probe 2 Stats  
Foresthill Probe 2: is located on Thomas Street
at 3000 feet. The main Foresthill Weather site
is located on Melody ln at the 2860 foot elevation

Calm
62.8°F
17.1°C
Temp Rate:
-2.6°F
Calm
Gusting to
None
(Humidity)
35%
Calm
314°  
Updated: 18/10/18 - 18:42:12
 Todays High: 72.1°F 14:29
 Todays Low: 51.7°F 07:29
 Rain Today: 0.00 in
 Season Total: 0.63 in

Foresthill Wx: Monthly,Yearly, Highs and Lows 

Foresthill  
This Weather Data is coming from the main Foresthill
Weather site located on Melody ln at the 2860 foot
elevation
Not Foresthill Probe 2
Weather Data
Month
  High
Month
  Low
Year
High
Year
Low
Temp 76.9°F
10/2/18
48.1°F
10/5/18
93.9°F
8/10/18
21.9°F
2/23/18
Humidity 100%
10/5/18
9%
10/15/18
100%
1/8/18
9%
10/15/18
Heat Index 76.7°F
10/2/18
50.6°F
10/7/18
93.3°F
7/25/18
27.1°F
2/20/18
Wind Chill 76.9°F
10/2/18
44.2°F
10/5/18
93.9°F
8/10/18
9.2°F
2/23/18
Wind Gust 43 mph
10/14/18
0 mph
10/1/18
43 mph
3/1/18
0 mph
1/1/18
Barometer 30.19 in
10/19/18
29.75 in
10/9/18
30.55 in
1/27/18
29.60 in
6/16/18
ET 0.20 in
10/14/18
0.00 in
10/1/18
0.25 in
6/24/18
0.00 in
1/1/18
Dew Point 55.9°F
10/3/18
7.1°F
10/15/18
66.9°F
7/24/18
7.1°F
10/15/18
Pacific Satellite US Radar Satellite Imagery Sacramento,CA.  (click to enlarge)
NWS Weather Forecast - Summary
Updated: Sunday, October 21, 2018 - 4:13am PDT
Current Interstate Highway Conditions for I-80 & US-50

[I 80: IN THE SAN FRANCISCO BAY AREA - SOLANO CO]
the westbound connector eastbound & westbound i 780 /in vallejo/ (SOLANO CO) is closed from 10:00pm on 10/20/18 to 8:00am on 10/21/18 - due to construction - a detour is available

[I 80: IN THE NORTHERN CALIFORNIA AREA & SIERRA NEVADA]
no traffic restrictions are reported for this area.

[US 50: IN THE SACRAMENTO VALLEY & THE LAKE TAHOE BASIN]
no traffic restrictions are reported for this area.
NWS Weather Forecast: Today and Tonight (Updated: Sun, 21-Oct-2018 2:11am PDT)
Today

Today: Sunny
Sunny

Hi 75 °F ↓
NWS forecast: Sunny. High near 75, with temperatures falling to around 69 in the afternoon. Southwest wind 2 to 7 mph.
Tonight

Tonight: Clear
Clear

Lo 49 °F ↑
NWS forecast: Clear. Low around 49, with temperatures rising to around 51 overnight. East northeast wind around 6 mph.
YR.NO 10 Day Weather forecast
Last update: 10/21/2018 @ 00:35
Next update: 10/21/2018 @ 13:00
Provided by: 22
      Temperature Precipitation Pressure Wind  
Today
10/21/2018
07:00 12:00 45°F   29.96 inHg Light breeze from east-northeast 6 mph
  12:00 18:00 73°F   29.95 inHg Light breeze from west-southwest 5 mph
  18:00 00:00 64°F   29.91 inHg Light air from west-northwest 3 mph
    (Click to enlarge)
meteogram

    Forecast for next 9 days

      Temperature Precip Pressure Wind  
Monday
10/22/2018
00:00 06:00 46°F   29.95 inHg Light breeze from east-northeast 5 mph
  06:00 12:00 45°F   29.94 inHg Light breeze from east-northeast 7 mph
  12:00 18:00 72°F   29.94 inHg Light breeze from west-southwest 5 mph
  18:00 00:00 61°F   29.92 inHg Light air from west 3 mph
      Temperature Precip Pressure Wind  
Tuesday
10/23/2018
00:00 06:00 45°F   29.96 inHg Light breeze from east-northeast 5 mph
  06:00 12:00 43°F   29.97 inHg Light breeze from east-northeast 5 mph
  12:00 18:00 66°F   30.02 inHg Light air from southwest 3 mph
  17:00 23:00 66°F   29.97 inHg Light air from west 3 mph
  23:00 05:00 46°F   30.00 inHg Light breeze from east-northeast 6 mph
      Temperature Precip Pressure Wind  
Wednesday
10/24/2018
05:00 11:00 45°F   29.99 inHg Light breeze from east-northeast 5 mph
  11:00 17:00 70°F   30.03 inHg Light air from southwest 3 mph
  17:00 23:00 66°F   30.01 inHg Light air from west-southwest 2 mph
  23:00 05:00 48°F   30.05 inHg Light breeze from east-northeast 5 mph
      Temperature Precip Pressure Wind  
Thursday
10/25/2018
05:00 11:00 43°F   30.06 inHg Light breeze from east-northeast 5 mph
  11:00 17:00 72°F   30.08 inHg Light air from west 2 mph
  17:00 23:00 70°F   30.04 inHg Light air from west-southwest 3 mph
  23:00 05:00 48°F   30.07 inHg Light breeze from east-northeast 5 mph
      Temperature Precip Pressure Wind  
Friday
10/26/2018
05:00 11:00 46°F   30.07 inHg Light breeze from east-northeast 5 mph
  11:00 17:00 73°F   30.08 inHg Light air from south-southwest 2 mph
  17:00 23:00 72°F   30.01 inHg Light air from west-southwest 2 mph
  23:00 05:00 48°F   30.02 inHg Light breeze from east-northeast 5 mph
      Temperature Precip Pressure Wind  
Saturday
10/27/2018
05:00 11:00 50°F   29.99 inHg Light breeze from east-northeast 6 mph
  11:00 17:00 75°F   30.01 inHg Light breeze from south-southwest 4 mph
  17:00 23:00 72°F   29.96 inHg Light air from southwest 2 mph
  23:00 05:00 50°F   29.99 inHg Light breeze from east-northeast 4 mph
      Temperature Precip Pressure Wind  
Sunday
10/28/2018
05:00 11:00 46°F   30.00 inHg Light breeze from east-northeast 5 mph
  11:00 17:00 70°F   30.07 inHg Light breeze from south-southwest 4 mph
  17:00 23:00 66°F   30.05 inHg Light air from southwest 3 mph
  23:00 05:00 48°F   30.10 inHg Light breeze from east-northeast 4 mph
      Temperature Precip Pressure Wind  
Monday
10/29/2018
05:00 11:00 46°F   30.09 inHg Light air from east-northeast 3 mph
  11:00 17:00 66°F   30.15 inHg Light breeze from west-northwest 4 mph
  17:00 23:00 64°F   30.13 inHg Light breeze from west-northwest 6 mph
  23:00 05:00 45°F   30.16 inHg Light breeze from east-northeast 4 mph
      Temperature Precip Pressure Wind  
Tuesday
10/30/2018
05:00 11:00 43°F   30.13 inHg Light breeze from east-northeast 5 mph
  11:00 17:00 64°F   30.14 inHg Light air from west-southwest 2 mph
How Close Are We To this Month's Temperature Record ?
Updated Sunday, Oct 21, 2018- 8:10:00 AM

Current Temperature: 57.1°F

October's High: Temperature Record 90.8°F - Set on Mon, Oct 1, 2012 - 2:51:00 PM
We are currently 33.7°F Less than this Month's record High

October's Low: Temperature Record 38.8°F - Set on Tue, Oct 23, 2012 - 11:59:00 PM
We are currently 18.3°F More than this Month's record Low

Weather History For Sunday, October 21, 2018


On this Day - In Weather History ...
Data courtesy of weatherforyou.com
powered by Cumulus v1.9.3 (1059)
Ambient Weather VWS v14.00
Top Contact Website Map Copyright © 2007 - 2018 Foresthillweather.com Never base important decisions on this or any weather information obtained from the Internet